STARLINK-35466 (66457 NORAD) Tracking and Keplerian Element Data

This shows tracking and keplerian element data for the satellite.

Feedback or suggestion? Click here.




ElementValue
Catalog66457
NameSTARLINK-35466
Epoch Orbit661
Epoch Day353.57989639
Epoch Year2025
RAAN32.1442
Inclination43.0018
Eccentricity0.0001719
Argument of Perigee273.794
Mean Anonmoly86.272
Mean Motion15.40709404
Decay Rate0.00029736
L11 66457U 25262B 25353.57989639 .00029736 00000+0 71611-3 0 9994
L22 66457 43.0018 32.1442 0001719 273.7940 86.2720 15.40709404 6614



Live tracking and technical data element details for STARLINK-35466 (NORAD 66457). STARLINK-35466 can be tracked NOW for your location showing map with azimuth and elevation plus other details from your city location.







IsCatalogInMostPopularTable: catalog: 66457, numindb: 7
Update: records affected: 1



GetName: 66457 STARLINK-35466

Hit Count: updated at: Sat, 11 Apr 2026 21:29:04 GMT